Location: Caltech
(34.1382°N, 118.1253°W)
Time: 19:36:30
(UTC-07:00)

AO-7 - Visible Passes

Search period start: 01 August 2014 00:00
Search period end: 11 August 2014 00:00
Orbit: 1440 x 1458 km, 101.5° (Epoch: 01 August)

Date Brightness Start Highest point End Pass type
(mag) Time Alt. Az. Time Alt. Az. Time Alt. Az.
01 Aug ? 04:28:56 10° NE 04:36:24 36° E 04:43:46 10° SSE visible
02 Aug ? 03:33:11 10° ENE 03:35:46 12° E 03:38:21 10° ESE visible
02 Aug ? 05:21:12 10° NNE 05:29:34 80° ESE 05:37:50 10° SSW visible
03 Aug ? 04:22:13 10° NE 04:29:25 32° E 04:36:33 10° SSE visible
04 Aug ? 05:14:19 10° NNE 05:22:38 72° ESE 05:30:53 10° S visible
05 Aug ? 04:15:31 10° NE 04:22:26 29° E 04:29:17 10° SSE visible
06 Aug ? 05:07:26 10° NNE 05:15:43 66° ESE 05:23:54 10° S visible
07 Aug ? 04:08:52 10° NE 04:15:27 26° E 04:21:57 10° SSE visible
08 Aug ? 05:00:35 10° NNE 05:08:46 59° ESE 05:16:53 10° S visible
09 Aug ? 04:02:16 10° NE 04:08:27 23° E 04:14:34 10° SE visible
10 Aug ? 04:53:44 10° NNE 05:01:50 54° ESE 05:09:50 10° S visible
